Home > Weather > Perth Amboy > Past weeks

Flag for U.S.A. Weather for the Past 2 Weeks in Perth Amboy, New Jersey, U.S.A.

Now
28 °F

Low clouds.


Feels Like: 19 °F
Forecast: 28 / 35 °F
Wind: 9 mph from Northeast

Location: Newark International Airport

Current Time: Feb 9, 2016 at 6:53:50 AM

Latest Report: Feb 9, 2016 at 5:51 AM


Visibility: 10 mi

Pressure: 29.66 "Hg

Humidity: 81%

Dew point: 23 °F

Location of Perth AmboyLocation

Historic Weather in Perth Amboy — Graph

°F

Perth Amboy Temperature Yesterday

Maximum temperature yesterday: 39 °F (at 12:51 AM)
Minimum temperature yesterday: 30 °F (at 9:51 PM)
Average temperature yesterday: 35 °F

High & Low Weather Summary for the Past Weeks

 TemperatureHumidityPressure
High58 °F (Feb 3, 2:51 PM)100% (Feb 3, 11:51 PM)30.44 "Hg (Feb 3, 11:51 PM)
Low21 °F (Jan 25, 5:51 AM)37% (Jan 27, 3:51 PM)29.47 "Hg (Jan 29, 12:51 PM)
Average39 °F65%30.01 "Hg
* Reported Jan 25 4:51 AM — Feb 9 4:51 AM, Perth Amboy, Weather by CustomWeather, © 2016

Note: Actual official high and low records may vary slightly from our data, if they occured in-between our weather recording intervals... More about our weather records

Advertising

Perth Amboy Weather History for the Previous 24 Hours

 ConditionsComfort  
Time TempWeatherWind HumidityBarometerVisibility
4:51 AM
Tue, Feb 9
29 °FLight snow. Mostly cloudy.8 mph79%29.66 "Hg9 mi
3:51 AM29 °FLight snow. Mostly cloudy.5 mph79%29.69 "Hg9 mi
2:51 AM29 °FLight snow. Mostly cloudy.6 mph82%29.72 "Hg10 mi
1:51 AM29 °FLight snow. Mostly cloudy.6 mph82%29.73 "Hg2 mi
12:51 AM30 °FLight snow. Low clouds.7 mph79%29.74 "Hg10 mi
11:51 PM
Mon, Feb 8
30 °FLight freezing rain. Mostly cloudy.6 mph82%29.76 "Hg9 mi
10:51 PM30 °FLight snow. Mostly cloudy.7 mph82%29.77 "Hg4 mi
9:51 PM30 °FLight snow. Overcast.7 mph75%29.80 "Hg10 mi
8:51 PM31 °FOvercast.12 mph73%29.80 "Hg10 mi
7:51 PM31 °FLight snow. Mostly cloudy.10 mph76%29.79 "Hg9 mi
6:51 PM33 °FLight snow. Mostly cloudy.9 mph70%29.78 "Hg9 mi
5:51 PM33 °FLight snow. Mostly cloudy.6 mph66%29.76 "Hg9 mi
4:51 PM34 °FOvercast.6 mph64%29.75 "Hg10 mi
3:51 PM35 °FMostly cloudy.13 mph61%29.73 "Hg10 mi
2:51 PM36 °FMostly cloudy.14 mph54%29.72 "Hg10 mi
1:51 PM36 °FMostly cloudy.13 mph57%29.73 "Hg10 mi
12:51 PM35 °FMore clouds than sun.13 mph61%29.75 "Hg10 mi
11:51 AM35 °FMore clouds than sun.16 mph72%29.78 "Hg9 mi
10:51 AM35 °FLight snow. Mostly cloudy.13 mph72%29.80 "Hg9 mi
9:51 AM37 °FMore clouds than sun.15 mph62%29.80 "Hg10 mi
8:51 AM38 °FOvercast.16 mph65%29.78 "Hg10 mi
7:51 AM38 °FOvercast.17 mph68%29.78 "Hg10 mi
6:51 AM38 °FMostly cloudy.17 mph68%29.77 "Hg10 mi
Weather by CustomWeather, © 2016

See weather overviewHow to use our weather pages